Location: Wheeling
(40.0640°N, 80.7210°W)
Time: 07:33:14
(UTC-04:00)

ITAMSAT 1 - Visible Passes

Search period start: 23 October 2021 00:00
Search period end: 02 November 2021 00:00
Orbit: 783 x 797 km, 98.9° (Epoch: 22 October)

Date Brightness Start Highest point End Pass type
(mag) Time Alt. Az. Time Alt. Az. Time Alt. Az.
23 Oct 7.5 19:39:37 10° SSE 19:44:46 77° ENE 19:49:57 10° N visible
23 Oct 10.7 21:22:50 10° WSW 21:24:45 12° W 21:26:41 10° WNW visible
24 Oct 8.1 19:10:36 10° SE 19:15:23 40° ENE 19:20:13 10° N visible
24 Oct 9.9 20:50:51 10° SSW 20:54:57 24° W 20:59:03 10° NW visible
25 Oct 8.7 20:20:21 10° S 20:25:16 45° W 20:30:14 10° NNW visible
26 Oct 7.6 19:50:33 10° SSE 19:55:43 86° WSW 20:00:56 10° NNW visible
27 Oct 7.8 19:21:19 10° SE 19:26:18 50° ENE 19:31:18 10° N visible
27 Oct 10.2 21:02:26 10° SW 21:06:00 19° W 21:09:36 10° NW visible
28 Oct 8.5 18:52:41 10° ESE 18:57:00 28° ENE 19:01:20 10° N visible
28 Oct 9.2 20:31:34 10° SSW 20:36:16 35° W 20:41:02 10° NNW visible
29 Oct 7.9 20:01:33 10° S 20:06:41 69° WSW 20:11:52 10° NNW visible
30 Oct 7.6 19:32:07 10° SSE 19:37:12 64° ENE 19:42:21 10° N visible
30 Oct 10.5 21:14:13 10° SW 21:17:04 15° W 21:19:56 10° WNW visible
31 Oct 8.3 19:03:16 10° SE 19:07:53 34° ENE 19:12:31 10° N visible
31 Oct 9.6 20:42:53 10° SSW 20:47:18 28° W 20:51:45 10° NW visible
01 Nov 11.1 07:18:41 10° ENE 07:20:27 12° E 07:22:14 10° ESE visible
01 Nov 8.3 20:12:37 10° S 20:17:40 54° W 20:22:45 10° NNW visible
